Location: ???????????
(54.5822°N, 39.1075°E)
Time: 06:16:08
(UTC+00:00)

NOSS 3-1 (A) - Pass Details

Date: 19 May 2025
Orbit: 639 x 1568 km, 63.4° (Epoch: 20 June)

Event Time Altitude Azimuth Distance (km) Brightness Sun altitude
Exits shadow 19:03:08 - 178° (S) 2,253 4.9 -9.9°
Reaches altitude 10° 19:03:24 10° 176° (S) 2,169 4.8 -9.9°
Maximum altitude 19:07:35 29° 117° (ESE) 1,407 3.9 -10.3°
Drops below altitude 10° 19:12:28 10° 60° (ENE) 2,563 5.7 -10.6°
Sets 19:15:33 0° 50° (NE) 3,668 6.7 -10.8°
